sat.trackr.live / text

‹ back to catalog

2023-072D

NORAD 56746 · 2023-072D

PAYLOAD ACTIVE UNKNOWN

§ Identity

Operator
Country
SKOR
Launch date
2023-05-25
Launch site
NSC
Launch vehicle
Mass (kg)
RCS (m²)

External: N2YO · Heavens-Above · Gunter

§ Orbital elements

Epoch: 2026-09-20T05:29:37.790304Z

Period
89.24 min
Inclination
97.4565°
Eccentricity
0.0003215
Mean motion
16.13545135 rev/d
Perigee alt
235.0 km
Apogee alt
239.3 km
Semi-major
6,615.3 km
B*
1.0526e-3
RAAN
128.1166°
Arg perigee
216.2214°
Mean anomaly
143.8854°
Rev number
18,590

§ Raw data

2023-072D1 56746U 23072D   26263.22890961  .01215282  10219-2  10526-2 0  99902 56746  97.4565 128.1166 0003215 216.2214 143.8854 16.13545135185900

JSON: /api/v1/satellites/56746 · /tle

For live sub-satellite position, see the globe view (requires WebGL).

§ Visibility from observer

Set your observer location to see the next 7 days of passes ≥ 10°. The values pass through the URL so the page stays shareable.

No JS? Fill the form by hand. The geolocation button needs JavaScript.